Wind_Gust
13 13 13 13 13 14 14 13 13 13 13 13 12 14 13 13 15 15 15 14 14 14 14 14 15 15 15 15 14 14 14 23 22 23 22 17 10 8 8 9 9 9 10 19 19 21 17 16 17 18 23 24 24 26 27 27 25 24 27 29 25 23 27 23 19 28 25 28 29 31 32 31 30 31 28 33 29 28 26 30 30 35 34 36 33 27 27 25
13 13 13 14 15 15 14 14 14 14 14 14 14 14 15 15 15 16 16 15 15 15 15 14 15 14 15 14 15 11 18 22 22 21 21 9 7 6 6 6 8 7 11 19 21 17 15 17 18 21 23 27 18 26 23 29 23 26 24 23 23 27 24 19 20 29 31 29 27 33 27 25 28 24 32 29 25 22 28 28 27 30 30 29 27 26 24 24
13 14 14 15 16 16 15 15 15 15 15 16 16 16 15 16 16 16 16 16 15 15 15 15 14 14 14 13 12 10 18 20 24 20 14 8 8 8 7 6 9 7 17 20 21 27 14 18 20 24 24 24 24 27 28 29 26 25 25 22 22 24 29 19 25 30 32 30 32 31 32 28 27 28 31 24 22 22 23 24 25 26 24 25 26 22 22 22
14 14 14 16 16 16 16 16 16 16 16 17 17 17 17 16 17 17 17 16 15 15 14 14 14 13 13 13 9 19 19 26 23 17 18 9 10 6 6 7 9 15 21 24 29 36 16 16 19 26 21 24 23 23 31 30 32 23 25 23 24 28 24 24 31 32 30 31 29 28 27 31 28 25 20 21 23 24 26 28 23 23 23 27 27 21 21 23
15 14 15 16 16 16 17 17 17 17 17 18 18 18 17 17 17 17 17 17 16 15 15 13 13 13 13 11 15 19 19 16 21 21 14 10 10 7 6 8 9 19 20 26 30 17 19 16 19 22 25 26 24 27 28 27 26 24 19 27 24 21 18 28 30 32 33 36 34 27 22 25 21 28 28 25 26 23 23 27 29 27 26 25 22 19 20 21
14 15 15 16 17 17 18 18 17 17 18 18 19 18 18 17 16 17 17 17 16 16 15 13 13 12 12 9 18 18 21 30 16 18 11 9 8 8 8 9 11 18 21 23 27 14 16 15 22 21 29 23 25 29 27 22 20 22 17 20 26 15 19 18 29 30 28 36 30 27 25 23 26 26 25 30 29 26 25 25 25 28 28 24 24 23 22 23
15 15 16 16 18 19 19 18 18 18 19 19 19 19 18 18 16 16 17 16 17 17 14 14 13 12 11 8 21 16 25 27 15 16 13 10 5 9 8 11 12 18 22 26 24 21 15 21 23 19 21 21 24 29 25 20 23 24 24 19 15 18 35 36 32 30 30 32 31 31 24 28 24 29 28 32 28 26 25 28 29 29 25 26 27 25 27 24
15 16 17 17 18 19 19 19 19 19 19 19 19 19 19 18 17 16 16 16 16 17 14 13 13 13 8 17 17 22 25 27 21 17 12 9 12 15 12 17 19 20 20 25 15 20 17 22 20 20 21 21 22 23 19 20 23 24 22 16 18 27 36 31 31 31 32 32 28 29 33 27 29 27 30 30 26 26 26 27 30 30 28 28 29 28 24 24
17 17 17 17 19 19 20 20 20 19 19 20 19 20 20 19 18 17 17 16 16 16 15 13 12 11 7 16 22 28 25 16 15 17 18 16 14 15 17 18 19 23 20 23 11 15 20 17 19 21 27 21 19 24 22 21 23 19 19 19 22 27 25 26 32 33 31 33 29 33 31 28 27 31 35 26 27 27 27 27 29 31 31 30 26 26 24 21
18 18 18 18 19 19 19 20 20 19 19 20 20 20 20 19 18 18 18 16 15 15 13 12 12 8 14 17 23 25 17 10 11 15 15 13 14 14 16 20 16 18 23 11 17 17 20 15 17 17 22 20 20 21 18 21 23 21 21 20 26 26 24 24 29 30 28 28 24 31 28 30 24 24 27 25 28 29 29 29 29 28 27 25 25 27 25 21
18 18 18 19 19 19 20 20 20 20 20 20 20 20 20 20 19 19 18 16 14 14 13 12 7 11 17 18 22 24 15 14 13 16 16 15 14 16 16 16 15 17 18 23 17 16 12 11 12 15 19 27 17 20 22 26 20 19 19 21 28 25 25 25 27 31 30 29 30 33 32 29 26 29 28 30 32 32 30 29 27 28 27 27 27 27 25 23
17 18 19 19 20 19 19 20 20 20 20 20 20 20 20 20 20 20 18 16 14 13 12 11 10 18 19 24 24 21 14 13 13 14 16 16 17 16 14 15 13 15 17 21 14 12 13 16 14 20 24 21 25 20 21 22 22 25 22 25 22 24 30 24 26 26 32 33 33 39 34 33 28 27 25 31 32 31 28 28 25 27 26 25 25 25 23 22
18 19 19 19 19 19 19 20 20 19 20 19 18 19 20 19 19 19 16 14 15 15 12 9 11 19 19 20 20 15 13 10 12 12 14 16 17 16 16 13 14 14 14 16 17 11 12 16 16 25 25 18 20 22 22 17 19 23 21 23 21 23 23 23 25 25 26 33 38 36 27 23 24 19 25 25 26 26 26 26 25 26 25 25 24 25 24 22
18 19 19 19 19 19 19 20 20 19 19 18 19 18 18 17 18 15 14 15 7 10 11 10 18 18 18 25 15 13 11 12 11 14 16 15 16 16 14 14 13 14 10 14 12 13 15 11 19 16 11 17 24 21 23 19 17 25 21 22 22 25 21 22 21 28 28 31 32 33 28 24 20 17 19 20 26 26 26 26 23 25 23 24 23 23 23 21
19 19 19 19 19 19 19 19 19 18 18 18 18 18 16 16 14 10 9 10 14 9 10 8 19 16 19 24 12 14 8 15 15 15 14 15 16 16 15 12 14 11 13 12 15 11 12 12 14 18 19 16 19 21 21 20 23 22 24 26 25 24 25 21 19 18 24 32 32 27 27 24 23 21 19 18 23 24 25 25 23 25 25 25 24 24 24 23
19 20 19 19 18 19 19 19 18 17 16 16 17 17 17 15 12 9 11 11 8 11 18 15 20 22 26 24 18 15 15 20 19 13 11 14 15 20 19 11 17 11 12 15 12 12 14 17 22 19 18 17 18 22 21 24 24 21 25 18 23 25 25 21 23 24 21 32 22 21 27 26 23 24 19 24 25 26 23 23 25 25 25 24 24 23 22 22
19 20 19 19 18 18 18 17 17 16 14 14 16 16 15 14 11 10 10 10 14 16 17 20 16 21 18 23 17 19 19 14 14 16 13 13 16 16 14 12 16 12 11 13 14 15 14 23 19 21 24 23 19 23 24 25 25 26 25 25 25 22 26 21 20 24 21 24 32 28 33 21 23 20 22 18 20 19 23 24 26 24 24 24 24 22 22 23
19 20 19 19 18 18 19 18 17 17 14 14 14 13 16 8 11 12 11 14 18 19 22 23 21 21 31 21 16 19 12 13 13 14 11 9 12 14 14 20 12 15 15 18 15 21 14 22 22 20 27 20 18 20 20 19 23 21 21 22 24 25 19 22 21 20 24 30 34 29 30 23 23 22 20 21 23 20 20 21 22 22 24 25 25 24 23 24
20 19 19 18 18 19 19 19 16 14 15 15 15 15 18 17 18 19 20 18 17 16 18 23 21 18 26 17 13 14 12 13 12 18 19 14 17 16 15 16 16 18 20 19 17 22 19 23 23 16 17 21 18 19 21 24 27 24 24 16 26 25 23 25 25 21 23 29 30 25 29 25 20 21 20 20 22 21 22 21 22 23 25 24 24 24 23 24
19 19 18 19 18 20 21 21 17 13 12 15 16 14 14 14 17 17 23 25 24 22 19 19 16 18 16 14 17 18 9 14 21 16 13 12 14 16 17 17 15 21 17 19 16 13 25 17 20 19 19 17 16 19 21 20 29 33 34 30 25 28 27 26 24 26 27 33 28 26 25 22 22 21 20 20 21 23 23 19 22 22 23 24 24 24 24 23
19 19 19 19 19 21 21 22 18 12 8 18 19 18 17 23 16 21 20 17 15 14 16 15 19 20 21 13 13 21 17 19 18 21 17 12 13 17 18 20 18 21 15 13 16 18 22 15 18 17 17 16 16 16 14 26 20 19 24 23 25 27 24 23 22 18 17 29 28 27 28 22 22 22 22 20 18 19 20 19 20 22 23 23 22 22 24 24
19 19 19 19 20 21 22 23 22 13 12 17 19 21 17 18 14 16 20 22 17 14 13 13 12 17 12 11 12 15 22 16 21 23 20 19 15 23 18 21 13 17 13 12 16 28 18 19 18 16 15 12 12 12 14 27 31 23 26 24 23 22 20 23 25 22 25 28 31 26 28 28 21 23 22 22 21 19 20 18 20 20 21 21 21 21 22 22
18 19 19 19 20 20 22 24 23 15 15 15 19 16 19 14 13 12 16 27 22 14 16 16 15 15 19 15 17 21 24 22 22 23 27 24 18 19 14 15 12 13 14 12 14 17 17 19 17 14 13 15 13 12 16 24 33 28 23 27 24 24 22 25 23 24 20 27 30 26 30 27 23 23 22 23 20 19 20 18 18 18 20 21 20 19 20 19
18 18 18 19 19 20 21 24 24 17 17 16 18 18 13 14 16 16 18 20 21 16 18 12 12 15 16 21 19 19 21 21 18 20 20 23 22 18 26 14 16 13 19 18 21 23 23 18 15 13 14 16 14 13 15 19 19 26 22 23 26 25 22 24 22 22 24 27 27 29 31 27 20 21 24 22 21 20 19 20 20 21 21 21 19 20 19 20
17 17 18 19 19 18 21 21 14 13 8 10 18 14 14 13 13 14 16 22 26 23 14 17 17 17 17 17 14 27 18 20 20 18 17 18 19 22 19 19 20 18 15 15 20 21 20 17 15 14 17 14 15 13 19 27 22 19 20 19 25 24 26 26 30 27 26 32 28 26 23 21 16 19 24 21 21 21 20 21 21 20 20 20 19 18 19 21
17 18 18 18 17 21 19 13 12 10 13 16 15 16 14 14 16 13 17 20 18 21 23 16 17 14 17 16 19 21 16 17 15 20 19 18 16 23 17 23 27 20 15 16 22 23 19 17 17 19 16 19 14 16 14 19 21 21 20 22 24 29 27 26 27 24 25 29 29 27 20 22 18 18 19 21 21 21 20 20 20 21 21 19 19 19 20 20
16 17 17 17 15 17 15 11 22 19 14 18 15 14 15 13 12 13 20 19 16 17 18 23 20 21 20 16 21 17 19 20 16 18 19 18 19 12 22 20 16 15 14 14 24 24 21 19 20 18 14 16 17 18 15 18 22 23 25 23 21 25 27 28 28 23 18 18 27 21 25 30 24 19 16 18 19 20 20 19 19 20 21 19 19 19 19 21
17 17 17 17 16 11 15 22 25 18 18 14 14 14 14 14 12 14 18 15 18 15 14 19 19 15 16 12 19 23 20 17 22 20 14 15 16 14 25 19 23 18 17 20 16 20 19 19 18 21 21 21 22 18 15 17 21 25 25 23 26 26 28 27 23 25 23 21 27 26 26 27 20 20 19 19 19 18 19 18 20 19 17 18 18 20 19 19
16 16 17 18 20 18 18 17 21 19 13 14 13 15 14 12 13 19 18 14 15 16 16 16 14 16 13 17 20 14 15 23 20 17 11 16 18 20 22 19 15 13 17 26 23 17 18 18 18 18 20 22 17 16 15 14 21 20 22 24 27 28 22 21 26 23 25 22 22 24 24 23 22 20 20 20 17 18 19 19 17 17 18 17 17 17 18 18
15 14 15 18 20 13 14 14 17 13 13 14 14 14 10 13 17 16 16 7 11 16 15 17 14 16 12 17 18 17 19 18 16 11 17 17 17 20 23 15 20 17 21 21 21 20 18 13 15 21 20 18 17 19 18 20 22 24 22 25 25 23 20 28 27 31 26 21 24 26 30 21 20 23 21 21 20 19 19 18 16 17 16 17 15 16 17 17
13 13 12 14 14 17 19 20 14 11 13 15 17 16 15 17 20 17 9 21 18 22 17 13 13 17 16 16 20 14 18 18 16 17 19 18 20 15 15 20 14 20 19 21 22 19 16 15 15 18 14 16 15 21 18 19 23 21 23 22 25 22 22 26 25 32 20 17 26 33 28 23 17 25 23 19 21 23 18 18 18 17 16 16 14 16 17 17
12 13 12 15 17 20 17 17 20 17 18 16 14 17 18 17 23 19 9 16 20 13 13 15 13 18 13 15 17 18 22 15 17 20 19 17 17 15 20 20 11 16 17 15 21 17 18 17 14 16 12 20 21 16 20 18 16 18 19 22 18 17 25 22 26 27 19 17 23 29 26 18 21 17 24 24 22 23 21 19 18 16 15 15 16 14 15 18
12 13 15 19 14 15 20 17 17 16 13 15 16 16 17 15 12 13 13 13 14 14 15 15 16 12 13 20 19 15 16 17 12 14 14 13 19 18 16 20 14 19 21 16 16 18 24 17 15 11 12 21 22 18 20 23 19 16 17 23 18 15 17 13 20 18 17 18 26 27 26 21 20 28 23 21 22 23 18 17 16 15 14 16 22 15 16 14
13 12 13 10 16 19 19 16 13 14 15 12 18 17 16 16 15 8 12 15 17 13 12 12 11 12 14 22 17 14 12 17 15 17 13 12 14 14 16 16 18 17 17 14 18 15 12 23 23 20 18 21 20 22 22 18 19 18 13 13 16 17 13 12 14 15 12 19 21 29 25 20 20 20 22 18 19 19 17 18 15 16 15 13 13 20 19 21
11 13 16 16 17 19 17 17 11 11 13 17 18 19 15 14 12 15 12 14 16 10 14 12 13 13 15 13 11 13 18 13 13 13 20 17 16 15 17 16 16 17 18 20 22 18 19 23 19 15 13 15 18 18 17 20 16 13 12 16 15 16 14 15 19 18 18 21 18 17 14 23 22 22 20 19 19 20 19 17 17 19 17 12 13 15 16 18
10 13 16 16 17 14 15 15 9 11 15 17 20 16 15 22 17 16 17 19 12 15 13 15 11 17 14 16 14 13 12 19 14 14 18 17 18 18 14 15 19 17 19 18 16 21 16 23 13 14 11 15 15 15 15 16 17 19 19 14 19 14 18 14 10 13 12 15 14 13 20 23 22 20 19 19 19 18 17 16 21 16 16 12 20 18 14 17
16 16 16 16 18 14 12 12 12 13 16 19 19 15 16 13 14 11 11 15 18 14 11 16 18 19 15 14 13 12 16 15 13 17 18 13 19 17 16 15 14 15 15 21 17 17 19 20 14 12 15 15 12 13 12 12 16 25 15 18 13 14 15 16 12 10 15 12 13 15 19 18 20 19 22 20 18 17 16 15 18 13 14 14 13 10 12 16
17 17 14 16 16 12 10 9 10 15 19 21 16 8 17 12 16 13 10 10 11 11 15 12 17 16 11 16 17 16 14 19 17 11 16 14 16 17 12 15 14 15 14 15 18 14 19 17 17 14 12 13 14 14 17 15 17 21 23 15 20 10 12 12 11 8 13 13 13 15 15 15 18 20 23 21 21 19 17 15 15 15 14 14 15 12 10 12
19 18 19 14 13 13 11 8 13 17 19 22 18 14 10 14 12 12 13 11 10 11 16 17 16 15 18 10 12 14 20 21 12 18 15 16 14 16 16 17 14 14 11 14 17 12 12 15 20 12 12 12 14 19 15 16 16 13 12 15 13 16 16 15 11 15 18 11 8 14 13 16 22 16 18 19 19 19 17 16 16 14 11 11 9 11 21 21
18 23 16 15 13 9 11 11 15 18 22 16 15 15 14 15 14 11 9 14 9 15 13 9 9 12 13 15 15 18 14 15 17 17 15 13 16 14 16 9 15 14 12 10 15 14 18 16 8 19 14 20 18 19 20 18 18 19 19 16 13 15 13 19 14 16 16 12 9 12 14 19 19 17 15 18 20 19 19 17 14 13 12 11 9 13 11 13
16 21 17 11 15 13 11 15 20 22 23 16 12 17 13 15 16 13 9 10 10 10 15 13 14 15 13 14 14 15 14 14 17 20 17 18 20 12 17 15 13 14 16 18 14 14 14 21 11 17 20 19 19 15 14 15 16 19 21 14 18 17 17 15 10 12 12 17 12 12 15 19 17 18 18 16 17 18 17 14 14 14 13 11 10 9 11 12
18 20 19 13 11 10 16 19 23 19 21 16 16 14 17 10 16 14 14 13 12 14 9 12 14 14 13 16 14 14 17 18 18 17 19 19 19 19 14 11 11 12 22 19 21 15 16 20 16 12 16 18 15 13 12 9 13 16 19 18 18 17 15 15 12 13 19 17 15 15 16 18 14 15 11 15 16 17 16 14 14 14 12 12 11 11 11 10
24 16 16 15 12 14 18 21 17 17 16 20 17 19 20 14 12 14 14 12 13 9 12 16 15 12 13 16 13 14 14 20 17 18 15 18 20 16 15 13 14 17 18 17 12 14 8 19 18 14 17 18 17 15 13 9 12 14 17 15 15 16 15 18 18 16 15 12 16 15 14 18 15 12 14 14 15 15 15 15 15 14 12 12 12 10 12 12
17 19 18 14 10 13 18 15 15 15 20 16 13 17 11 13 12 16 14 12 12 12 10 13 13 15 14 10 13 18 13 12 13 15 19 14 22 12 14 13 18 19 17 15 16 15 15 15 21 16 17 20 18 16 16 13 13 17 17 14 14 11 12 13 17 14 11 14 15 19 12 19 17 11 14 13 14 14 15 15 14 14 13 13 13 12 12 11
17 13 16 19 17 16 18 16 17 19 19 17 19 17 16 12 18 15 14 15 11 14 11 13 12 12 12 9 16 12 16 14 17 15 17 15 19 10 12 14 13 16 14 14 10 14 14 13 17 17 18 12 11 11 14 14 16 14 12 12 15 16 14 18 14 13 12 13 12 15 15 21 15 14 16 15 15 15 15 15 15 14 12 14 14 12 12 12
20 18 20 21 20 19 21 20 24 18 20 18 10 15 14 19 15 13 11 17 13 13 15 16 11 11 13 12 14 14 17 13 12 13 15 18 17 17 12 17 16 18 12 9 13 14 11 13 16 19 20 20 19 17 14 15 15 17 12 13 14 15 16 16 19 17 21 17 19 17 17 16 20 18 17 16 17 16 17 17 17 17 15 14 13 13 13 13
20 17 20 17 18 20 17 16 15 16 18 17 13 15 15 15 17 15 11 16 12 14 14 13 12 12 11 12 11 14 13 17 14 15 14 15 16 18 12 15 18 13 7 12 9 14 14 12 14 13 15 17 15 14 12 12 12 12 13 12 11 14 14 16 17 18 19 19 15 16 16 14 15 13 12 14 17 17 17 17 18 17 16 16 14 14 9 15
15 16 15 15 17 18 15 12 15 14 18 17 15 13 15 17 16 14 13 14 16 12 10 10 8 9 11 11 11 11 12 16 14 13 12 13 15 15 18 12 15 11 15 12 12 14 17 11 9 8 13 10 13 11 10 9 11 10 10 10 11 10 13 14 15 15 14 16 16 14 11 11 14 17 13 15 16 15 16 17 16 15 15 16 15 15 16 16
18 18 13 14 12 15 15 15 12 15 16 12 17 13 17 15 16 17 14 17 15 14 9 7 11 11 9 9 13 13 15 13 8 12 13 16 18 15 15 16 14 13 13 14 15 15 19 14 10 9 11 10 9 10 9 11 9 11 10 10 11 11 11 11 14 13 14 14 13 13 13 15 20 19 13 16 16 11 14 16 14 16 16 15 16 16 17 16
17 16 18 11 14 18 15 14 16 16 16 11 13 14 18 15 15 14 17 17 13 13 10 13 13 11 9 10 12 16 14 12 11 15 11 10 11 11 13 15 14 14 14 12 8 11 19 12 8 12 14 14 10 9 9 11 11 13 9 13 11 10 12 8 12 17 12 15 12 11 13 16 22 13 12 10 10 13 14 15 17 17 18 18 17 17 16 17
14 16 13 18 20 18 14 14 17 16 16 16 15 15 14 16 16 14 15 13 14 13 12 13 15 12 9 9 10 13 13 12 8 9 14 10 14 13 14 11 16 13 10 12 9 10 14 11 12 11 12 14 11 9 9 10 13 14 13 12 12 11 13 14 11 19 13 16 13 14 17 17 17 12 11 9 10 12 13 14 15 16 17 16 17 17 17 17
15 13 11 14 17 13 15 12 13 15 14 17 16 17 16 16 17 17 17 12 12 12 11 16 13 12 12 10 12 12 10 9 13 13 14 11 10 11 13 13 16 15 10 13 10 16 14 16 11 8 12 9 12 9 11 12 14 18 16 15 9 15 20 12 12 13 12 12 14 10 15 17 15 14 14 11 11 10 11 13 14 16 17 17 17 17 17 17
Wind_Speed
8 9 10 10 10 11 11 11 10 10 9 8 8 10 10 10 12 12 12 11 12 11 11 12 12 12 11 11 11 11 11 9 10 7 9 3 2 5 5 4 2 7 8 8 10 12 8 7 9 8 10 7 9 11 8 13 9 8 9 8 8 6 7 11 7 10 12 11 13 15 14 12 12 7 9 11 13 12 17 17 15 16 14 10 6 3 3 3
9 9 10 11 12 12 12 11 11 10 8 8 9 9 11 11 12 13 13 12 12 12 12 12 12 11 10 10 11 10 10 10 11 12 1 3 1 4 4 5 6 5 6 9 11 10 7 7 8 11 10 9 9 11 12 9 10 9 7 8 7 3 6 12 11 15 15 15 10 10 11 13 11 8 5 6 10 12 16 15 14 14 10 9 7 9 8 4
9 10 11 12 13 13 12 12 11 9 8 9 10 11 11 13 13 13 13 13 13 12 12 12 11 11 10 10 9 8 8 8 12 3 5 4 5 6 5 4 8 5 6 11 12 17 5 4 9 13 9 10 9 8 9 9 9 8 9 6 3 5 13 9 14 18 18 13 16 12 11 11 11 9 7 8 9 14 12 5 9 13 9 9 10 7 5 7
10 11 11 13 13 13 12 11 10 8 9 10 12 12 13 13 14 14 14 13 13 12 11 12 12 11 11 10 7 8 9 13 5 6 7 7 8 3 0 2 6 9 9 13 16 20 2 6 11 13 8 9 8 10 10 7 9 8 3 4 1 15 11 14 12 17 15 16 15 12 11 11 12 10 4 5 10 12 12 12 12 11 9 9 8 7 6 7
11 11 12 13 13 12 12 11 9 9 11 12 13 13 13 14 14 14 14 14 13 12 11 11 11 11 10 9 8 7 8 4 8 6 6 8 7 6 4 6 7 9 11 13 17 12 11 9 9 10 10 7 5 6 10 10 10 4 3 6 7 13 8 18 12 19 16 14 14 13 12 11 9 17 18 15 12 9 9 13 12 12 9 9 8 7 7 9
11 12 12 13 13 13 11 9 10 12 13 13 13 14 14 14 14 14 14 14 13 12 11 11 10 10 9 7 8 7 6 8 3 7 9 7 7 7 6 7 9 10 12 14 15 4 9 8 11 9 9 8 6 10 10 9 9 6 7 10 15 6 3 12 18 18 15 12 15 16 14 12 17 13 14 18 16 9 8 11 11 11 11 10 8 8 9 9
12 12 13 13 13 12 10 10 12 13 13 13 14 15 15 14 13 13 14 13 13 12 11 11 10 9 9 7 10 6 7 11 4 6 10 9 5 7 7 8 9 10 12 14 15 9 8 10 8 9 7 6 11 11 10 11 11 11 5 8 4 1 24 24 20 19 16 17 18 16 14 15 13 14 10 16 12 4 3 9 10 10 10 10 10 9 10 9
12 13 13 13 13 11 10 11 12 13 13 14 15 15 15 15 13 12 13 13 13 12 11 10 10 10 7 8 5 7 2 9 10 8 10 8 7 9 7 9 11 11 12 16 6 11 5 11 8 7 6 4 8 10 8 11 11 8 9 9 7 18 18 20 19 16 15 15 16 20 20 16 16 11 11 9 6 0 5 7 10 11 10 9 10 10 10 10
13 14 14 13 11 10 11 11 13 13 14 15 15 16 16 16 14 12 12 12 12 11 12 10 9 8 3 6 7 4 8 8 8 9 11 7 7 9 10 8 12 14 11 14 6 7 6 6 8 7 2 2 8 8 5 9 5 6 5 6 14 14 15 16 20 16 13 8 15 21 20 16 14 16 15 7 2 9 4 7 9 10 11 9 7 8 10 9
14 15 13 11 11 11 11 12 13 14 14 15 15 16 17 15 15 12 12 12 12 11 10 10 9 4 7 6 9 2 5 1 5 7 7 7 7 7 10 11 9 9 13 4 9 9 2 1 8 8 10 4 8 8 10 13 3 2 8 10 15 15 12 13 17 17 11 8 14 18 16 13 8 7 6 3 3 14 6 7 7 10 11 10 9 8 8 9
15 14 12 10 11 11 12 12 13 14 15 15 16 16 16 16 15 14 12 12 11 10 10 9 5 5 7 8 9 8 3 6 5 6 6 6 6 7 8 9 9 8 10 14 6 9 2 4 4 5 4 4 7 7 10 5 4 3 8 7 18 15 14 15 17 21 13 8 13 20 18 14 11 11 11 9 11 5 5 6 10 10 9 10 11 8 5 5
14 13 11 11 10 11 12 12 13 14 15 15 16 15 15 16 16 15 13 11 11 10 9 9 7 5 8 10 4 9 7 6 1 5 6 5 7 7 8 7 7 8 9 12 7 4 3 8 6 2 3 3 2 5 4 8 13 9 8 8 14 14 13 13 11 14 12 11 15 20 20 16 10 7 5 2 4 5 5 6 8 9 9 9 10 8 7 7
13 12 11 10 10 10 11 12 13 14 15 15 14 14 14 15 15 14 11 10 11 11 9 7 7 7 7 2 8 6 5 2 3 3 6 5 6 7 8 7 6 5 7 8 10 3 5 6 9 15 6 7 4 4 7 8 12 15 8 4 9 12 8 9 14 13 15 13 13 4 6 4 4 4 1 3 2 6 7 7 6 6 8 9 10 10 9 10
12 12 11 11 10 10 11 12 13 14 14 14 14 14 14 13 14 12 9 11 2 7 8 8 7 8 6 3 5 6 6 4 2 3 7 6 7 8 7 8 4 5 3 5 6 4 8 5 11 6 4 8 6 3 8 8 4 7 9 8 7 2 5 14 10 18 14 15 13 9 10 2 5 3 2 4 6 8 13 10 5 7 10 9 9 8 8 9
12 12 12 11 10 10 11 12 12 13 14 14 14 15 13 13 11 8 7 7 11 6 7 4 8 6 5 8 3 8 6 6 7 7 5 7 7 8 8 2 7 2 4 5 7 2 4 6 4 6 3 8 5 4 6 4 4 5 6 5 9 8 7 8 6 8 11 15 9 7 9 7 5 6 3 5 10 8 11 5 5 8 10 8 8 12 7 4
13 13 12 11 11 10 11 12 12 12 13 13 14 14 14 12 9 7 7 9 4 7 7 6 8 7 12 5 4 10 6 9 10 5 2 5 5 10 11 3 10 4 4 8 2 3 4 6 9 9 3 4 2 2 8 7 3 2 5 5 4 10 4 7 10 9 10 4 3 6 9 7 2 6 6 8 5 10 3 9 10 11 11 9 7 8 9 9
13 13 12 12 11 9 10 11 11 12 12 12 13 13 11 11 9 7 8 5 5 7 6 6 5 9 4 7 6 7 8 6 6 6 3 6 7 8 7 6 6 4 3 2 7 3 4 10 8 7 13 9 7 10 4 6 8 4 1 9 9 6 2 1 10 9 9 11 13 9 13 11 8 4 6 2 2 8 1 3 4 4 7 9 6 6 7 8
13 13 13 12 12 11 10 11 12 12 12 11 11 10 9 7 8 8 8 6 6 6 9 9 8 8 7 7 4 7 3 7 3 6 1 0 0 3 6 9 2 8 1 5 4 9 4 6 10 6 8 7 5 7 6 3 8 6 8 4 7 10 4 3 6 7 7 8 16 17 15 14 15 13 12 10 5 3 4 2 3 6 9 9 8 7 9 8
14 14 13 12 12 13 11 11 11 12 12 12 12 10 14 14 7 8 6 5 3 4 5 8 6 2 9 6 3 7 4 6 4 9 10 7 9 5 7 3 9 3 4 5 4 10 6 7 9 6 3 10 1 4 9 13 12 3 7 3 4 2 10 10 7 3 2 6 8 15 9 9 11 11 10 11 11 9 5 3 4 6 7 7 7 7 8 8
14 14 13 12 13 15 14 10 10 10 9 10 3 3 3 2 3 5 7 7 11 8 6 10 3 9 7 2 6 9 3 6 11 7 1 4 4 7 8 4 3 7 4 8 9 4 10 5 8 8 2 7 9 8 9 5 13 6 5 6 2 4 7 9 9 3 2 4 11 15 14 12 11 9 8 6 12 10 8 9 9 4 5 6 8 9 9 8
14 14 13 12 14 17 16 12 9 8 3 5 8 6 3 3 4 2 8 4 6 1 7 4 6 11 10 6 2 11 5 1 6 6 6 4 4 6 1 4 2 8 5 6 6 9 3 5 5 9 9 8 7 6 6 16 9 5 8 10 3 2 4 5 5 10 3 1 10 12 12 12 13 9 5 9 8 8 7 5 6 9 9 7 6 8 10 9
14 14 12 14 15 17 18 17 12 8 6 4 4 6 7 6 3 7 7 3 8 4 7 4 5 9 2 4 2 7 1 4 7 6 8 4 3 8 6 8 5 5 1 4 6 10 7 6 7 8 6 4 1 4 5 7 5 5 1 3 6 6 7 9 15 4 3 6 4 8 10 10 11 13 6 3 6 6 6 7 4 7 7 7 6 8 8 7
14 13 12 14 15 17 18 20 17 11 3 4 4 4 5 6 5 2 5 5 8 3 8 7 5 3 9 6 2 7 14 6 6 6 9 6 11 7 4 5 1 4 3 1 2 7 5 6 9 3 6 8 3 5 10 9 6 3 4 2 3 6 8 7 0 3 1 2 8 9 13 8 3 11 9 5 6 7 5 4 4 3 6 8 6 5 5 8
13 12 11 14 15 16 18 20 21 7 6 8 7 5 4 5 6 8 6 7 3 5 8 2 2 5 4 9 6 7 9 8 7 7 6 8 10 8 8 5 2 3 3 5 6 6 8 7 4 5 3 8 6 7 8 4 2 1 2 5 5 7 4 2 4 3 5 4 6 12 8 10 8 7 3 2 6 6 4 6 4 3 5 9 6 6 6 6
13 11 11 13 15 15 17 17 7 3 1 1 7 6 5 6 5 7 6 4 6 5 5 6 7 3 6 4 7 9 7 6 2 5 6 4 9 8 9 8 5 2 5 5 2 5 9 10 8 5 8 7 6 2 10 8 9 4 2 3 6 10 7 7 5 6 6 4 7 11 5 2 6 9 2 2 4 6 6 5 5 5 7 7 7 7 6 7
13 11 11 11 14 17 14 4 5 3 6 5 6 5 6 5 8 5 6 4 1 5 7 5 5 3 4 6 8 8 6 1 6 6 8 8 7 11 3 5 6 7 7 6 10 6 7 8 9 10 6 5 4 5 6 8 9 2 5 2 8 9 5 8 6 5 3 4 7 9 3 4 1 4 8 5 4 5 6 4 3 1 5 7 6 5 5 6
12 11 11 11 12 14 7 3 11 11 5 6 4 4 5 6 5 4 3 4 2 4 3 7 5 6 4 5 9 4 8 4 4 4 7 5 10 3 8 3 4 6 3 4 4 3 8 10 11 11 5 7 6 5 5 6 6 3 2 4 12 9 7 7 6 7 6 5 7 5 4 5 4 1 8 8 8 8 8 6 5 2 2 4 7 6 5 6
12 12 12 11 10 3 4 7 11 8 8 3 5 5 6 7 4 3 4 2 5 5 2 5 7 3 5 2 2 9 9 7 6 7 2 4 5 3 9 8 9 8 8 8 0 7 8 9 9 10 9 8 8 6 8 10 7 6 6 6 9 8 7 5 4 3 5 5 5 7 9 5 5 6 7 10 9 9 10 8 7 4 3 4 4 4 5 9
11 11 13 13 16 13 7 4 8 8 5 6 6 6 5 5 3 2 3 1 3 3 2 3 1 6 5 7 7 6 6 4 8 7 2 6 2 5 6 10 6 4 7 14 8 7 7 8 7 8 8 8 8 5 8 7 8 8 9 14 7 7 8 6 2 2 2 3 4 7 8 2 5 7 6 5 7 9 9 9 9 9 9 7 6 7 7 7
11 10 11 14 13 3 2 5 7 5 6 6 7 7 5 4 3 1 2 2 1 5 4 4 4 6 2 7 7 5 5 4 2 2 4 3 4 11 3 5 9 6 7 7 7 6 6 6 7 6 8 8 10 11 10 12 10 10 12 13 10 8 6 5 1 3 1 0 4 3 7 1 2 6 6 6 7 7 7 8 6 8 8 9 9 9 8 6
10 9 8 11 4 6 8 8 1 5 6 7 9 9 5 2 2 2 2 7 4 7 5 3 2 7 6 7 3 3 8 5 5 6 7 5 8 2 3 7 2 4 3 3 6 3 6 8 4 4 4 7 7 10 9 9 8 8 7 6 6 6 4 1 5 2 1 2 6 5 1 4 3 5 6 6 11 11 9 10 9 10 8 8 6 6 8 4
10 10 9 4 6 7 5 7 10 8 9 9 8 6 1 1 1 5 2 3 9 3 2 4 6 6 6 3 3 5 8 4 6 6 7 4 7 4 6 7 3 3 0 1 3 6 6 5 4 7 2 6 8 5 8 8 6 3 6 3 1 3 1 2 2 2 2 3 5 8 9 4 2 3 6 10 9 8 7 7 9 7 6 5 6 3 6 9
9 9 11 10 8 5 9 7 8 8 8 9 6 4 1 0 4 3 2 0 5 6 5 5 7 6 6 10 8 4 2 7 2 6 6 3 8 8 3 5 6 4 6 2 2 6 5 7 5 4 2 8 10 1 3 6 3 7 7 7 5 1 1 1 1 1 3 6 14 8 8 3 1 6 7 10 9 7 7 7 5 6 3 9 8 7 3 4
9 8 4 3 5 8 8 9 5 7 8 6 6 4 3 2 3 3 1 6 6 5 5 3 3 4 7 8 6 5 2 7 6 3 6 1 5 5 6 7 6 8 7 2 2 6 1 6 6 9 5 5 5 2 5 2 3 1 3 4 1 1 3 2 2 2 1 6 11 19 11 3 4 5 8 7 12 10 7 7 4 6 2 6 3 3 10 7
8 6 6 8 8 9 10 8 5 4 6 6 6 3 1 4 5 5 3 5 4 2 7 2 5 4 2 6 5 5 6 2 3 2 9 7 6 5 7 5 8 7 7 6 6 5 5 6 6 7 6 4 6 3 7 4 7 2 2 2 3 4 2 5 4 6 5 4 4 5 2 4 5 8 6 9 9 8 6 8 6 9 7 3 3 3 7 9
4 3 6 5 7 7 8 6 5 3 4 6 5 1 3 9 2 5 5 9 3 7 4 7 2 3 5 6 5 6 5 7 5 3 7 7 7 7 6 5 6 8 7 5 6 4 2 6 4 5 5 6 3 4 6 3 4 5 5 3 3 2 5 1 3 1 4 1 4 4 8 8 9 7 10 8 9 10 10 8 12 8 7 5 6 8 8 9
4 5 5 7 9 7 5 5 3 3 5 6 4 2 5 1 4 5 4 7 8 6 5 4 5 7 6 5 4 4 7 5 2 4 6 2 6 8 7 7 4 7 7 7 6 6 7 5 4 1 6 7 2 3 2 4 4 8 1 5 3 2 4 2 1 1 2 1 2 2 9 8 9 4 8 12 11 10 8 9 10 7 5 1 6 3 5 3
6 7 6 8 7 5 3 2 1 4 6 6 5 7 7 4 7 4 3 2 2 1 5 3 6 8 4 6 5 7 5 7 5 0 6 6 4 9 4 5 6 7 6 6 6 4 5 2 5 5 1 4 3 4 6 1 2 5 6 2 6 2 1 2 2 1 2 1 1 4 9 5 1 6 8 10 11 9 8 5 7 5 5 7 2 6 2 7
6 5 6 5 5 5 5 2 2 5 6 7 7 6 1 4 2 6 6 4 2 5 4 7 6 5 8 3 4 6 9 7 5 7 4 4 1 7 6 7 6 4 4 7 6 4 0 4 4 3 3 3 4 2 4 3 3 3 3 3 5 4 3 5 1 3 4 1 2 3 6 1 2 3 6 8 8 8 6 4 3 2 3 3 3 6 12 8
6 6 5 8 5 4 5 1 5 6 6 5 6 1 3 3 6 4 3 7 3 6 5 3 1 3 5 7 7 5 6 7 7 6 5 5 5 7 8 4 6 5 3 2 3 4 6 2 1 6 5 4 3 7 6 7 7 7 6 6 4 3 1 4 0 4 3 4 2 0 4 3 5 4 4 6 7 7 4 4 2 3 2 2 1 7 6 7
7 6 4 4 7 6 3 3 6 7 7 5 5 4 2 4 5 5 2 4 1 1 7 6 6 6 5 4 5 7 5 6 7 7 6 8 8 3 7 6 5 7 8 10 2 5 4 7 3 5 4 7 7 6 4 4 7 6 6 6 7 6 6 4 0 1 2 0 3 1 6 5 6 7 5 5 5 4 3 3 4 3 1 2 4 6 6 4
6 6 5 5 6 5 5 6 6 7 5 7 1 3 5 4 5 5 5 4 5 4 2 3 7 6 5 6 5 6 6 7 8 7 7 7 9 7 4 4 4 6 8 5 5 7 4 3 6 4 5 6 6 5 5 2 3 5 7 7 8 7 5 5 3 5 8 6 5 2 5 5 5 8 3 7 1 5 3 3 1 1 1 2 4 5 5 2
7 2 7 7 5 7 5 6 7 6 6 6 4 5 6 3 3 4 5 3 5 2 4 6 6 3 5 7 6 4 6 6 8 6 7 10 9 7 6 6 8 9 7 6 6 6 5 4 5 3 5 7 7 6 7 5 1 3 7 6 7 6 5 6 5 6 6 6 4 4 3 3 5 4 7 7 5 3 5 2 2 1 3 2 1 1 4 4
6 5 6 6 5 5 6 4 3 5 3 2 3 6 2 4 3 5 2 4 3 4 4 3 6 8 5 4 4 8 5 3 7 7 7 7 7 5 8 6 11 7 7 4 5 6 3 4 7 3 3 5 4 3 5 3 3 5 5 5 7 5 6 7 7 6 3 5 4 4 3 2 1 2 1 3 6 4 4 4 1 2 3 1 3 2 1 4
3 4 5 6 5 4 6 5 4 2 5 4 4 3 2 4 10 5 6 7 5 6 1 5 4 4 4 2 6 5 8 6 4 4 9 7 7 3 6 8 8 8 6 4 6 4 3 4 6 4 5 4 2 3 4 4 5 4 6 6 8 9 9 7 5 2 2 3 5 5 3 5 4 5 5 4 7 5 6 2 2 1 3 3 4 2 2 2
5 3 5 6 4 5 7 8 12 3 5 5 2 4 4 4 3 6 5 8 6 5 5 4 4 4 4 3 5 7 9 6 4 1 6 7 6 5 4 10 9 8 6 6 5 5 2 5 5 6 7 6 6 5 4 7 6 6 6 6 7 8 8 8 7 6 6 5 8 8 8 3 8 7 8 3 4 1 1 4 2 3 2 1 2 2 1 1
7 4 4 4 5 7 7 6 2 2 4 5 3 5 5 6 5 4 4 5 5 5 5 7 3 3 5 5 2 6 6 9 7 7 4 7 6 6 5 9 9 6 2 2 5 3 5 4 6 6 6 6 4 5 5 6 5 6 7 5 6 7 8 9 5 6 8 5 6 5 8 6 4 8 7 7 4 2 2 2 4 5 3 3 3 3 3 4
4 4 6 5 5 3 6 4 3 4 9 7 4 5 6 7 6 4 4 5 8 4 2 0 2 4 5 5 4 4 5 8 6 5 6 3 7 7 7 6 7 4 8 2 5 2 6 3 3 2 6 2 2 2 5 3 3 3 3 3 6 4 8 7 6 7 8 4 4 7 5 4 3 3 7 9 9 7 5 0 4 4 5 6 4 2 3 4
4 3 2 6 4 2 4 5 4 7 8 6 5 5 7 6 7 6 4 7 5 4 2 2 3 5 3 2 5 4 6 4 3 6 6 7 9 6 3 7 7 5 6 6 5 5 4 5 4 2 2 3 4 4 0 3 2 5 4 4 6 6 2 4 3 4 7 4 4 3 4 8 11 10 5 5 5 6 5 3 5 3 5 3 4 5 5 5
1 2 5 3 6 4 5 5 4 5 5 1 2 6 6 7 7 7 6 6 3 3 3 5 4 6 4 5 6 7 7 5 5 2 4 6 2 4 5 6 3 6 5 5 2 3 3 3 2 1 4 4 5 4 3 4 1 5 3 7 5 4 4 2 5 10 7 3 3 4 6 1 3 5 4 1 2 3 2 6 5 6 6 4 6 4 5 6
4 5 5 5 5 4 2 2 5 6 4 4 5 6 6 6 7 4 7 6 5 3 3 4 8 6 3 2 6 7 7 5 3 5 2 1 5 4 5 3 8 3 4 5 3 3 6 1 4 3 4 6 4 3 1 2 2 1 2 1 4 0 2 7 3 4 4 4 4 5 3 5 2 4 3 3 1 1 5 5 3 6 5 6 4 4 4 1
6 6 4 4 2 4 5 4 6 5 2 6 4 7 4 7 6 4 5 2 3 6 5 7 6 3 4 3 6 5 2 2 7 5 4 4 3 1 4 6 7 6 3 4 1 5 5 6 4 1 3 3 5 3 2 4 2 4 6 8 3 10 12 4 5 5 2 5 4 2 7 5 5 4 3 5 6 5 5 1 3 9 10 10 6 4 6 5
Wind_Direction
319 322 325 316 310 303 298 301 300 294 295 304 326 328 321 319 307 299 296 292 293 295 293 290 289 291 296 304 311 314 322 295 298 250 225 6 69 69 54 45 338 343 358 296 261 251 197 194 209 172 199 194 211 229 197 212 218 216 230 239 259 297 257 282 41 86 138 64 53 55 58 68 82 71 72 79 81 91 81 73 71 65 65 77 98 103 65 52
324 327 322 313 301 299 298 296 293 293 306 331 331 325 323 312 304 295 292 293 291 289 289 289 288 294 304 305 310 320 309 294 273 265 109 71 185 100 60 15 337 335 310 268 261 240 189 179 199 180 204 194 187 225 186 203 231 216 228 254 218 242 285 276 94 81 85 96 71 57 57 62 59 78 54 60 64 71 67 66 79 73 71 85 73 50 44 50
326 325 313 304 300 294 294 292 293 304 330 331 330 331 320 307 299 296 291 290 290 289 287 288 293 299 302 309 307 303 299 292 264 27 74 115 63 52 35 355 312 322 297 269 272 273 239 204 174 194 194 197 182 207 169 192 209 218 245 225 18 21 269 20 87 102 91 98 83 57 53 52 67 68 59 77 71 69 89 100 74 71 74 61 61 78 72 61
324 313 308 298 295 293 291 292 298 324 330 340 337 324 313 303 297 294 291 290 289 289 290 293 298 303 305 303 307 298 274 280 45 52 114 144 104 104 68 297 283 292 267 260 266 273 168 169 172 216 188 215 183 207 174 185 216 166 171 300 92 258 208 97 83 97 94 97 100 93 66 60 35 28 77 142 79 67 74 98 98 101 91 85 93 97 97 80
314 307 298 296 292 292 290 292 313 330 347 340 330 317 306 300 297 292 292 288 288 288 291 296 298 297 298 300 296 280 296 269 66 97 111 131 140 147 196 247 267 269 257 268 279 269 163 196 200 215 239 184 186 143 207 188 226 168 140 287 234 210 225 103 80 85 98 96 93 89 83 71 62 51 36 49 76 65 80 97 106 113 112 103 100 91 80 75
306 300 296 294 291 288 289 307 332 347 343 333 320 310 303 298 295 294 290 289 286 288 289 290 295 289 286 280 276 258 277 68 154 100 133 151 154 171 195 231 255 272 268 268 278 164 269 209 237 217 231 140 180 194 188 201 197 202 141 193 223 303 246 110 104 96 97 95 77 75 84 85 63 51 37 55 58 30 78 104 103 98 93 90 94 86 80 78
301 300 298 292 289 288 306 330 346 344 335 324 313 304 301 298 293 290 288 286 286 285 285 284 281 285 284 299 259 250 267 89 144 121 110 157 170 169 192 235 245 259 257 271 268 230 213 223 193 225 182 175 169 196 169 167 190 252 157 195 97 129 72 77 78 80 84 90 85 87 84 79 79 69 46 61 71 139 85 104 100 93 91 86 81 94 97 96
305 301 295 290 290 304 326 342 344 338 327 316 307 302 300 297 295 290 286 284 283 280 281 276 276 279 309 266 256 228 164 89 100 140 144 151 185 200 181 235 242 241 255 268 266 245 280 258 271 147 226 222 167 168 197 166 199 230 157 167 149 76 88 89 94 90 92 96 100 93 85 78 75 75 66 50 28 347 132 105 88 84 87 91 97 96 93 97
304 297 291 291 302 323 334 342 342 332 318 308 305 302 301 299 296 292 284 279 277 276 272 272 266 272 237 300 264 295 81 92 99 143 152 182 206 218 205 240 225 240 262 267 320 337 263 17 110 316 36 136 163 127 216 220 202 218 120 144 96 95 95 108 99 94 84 93 102 90 89 94 94 88 66 67 354 275 112 91 97 105 101 95 90 90 110 105
300 293 292 302 319 326 340 344 335 320 309 303 304 303 300 300 299 295 286 277 270 268 264 259 262 245 252 251 277 179 91 125 159 166 183 211 220 228 232 257 289 264 274 271 242 325 78 44 303 211 222 99 196 156 183 239 101 121 134 153 110 105 113 119 117 104 92 110 106 98 93 82 99 127 100 87 205 264 142 129 135 111 98 91 75 60 32 60
296 295 301 316 321 333 345 339 321 309 303 303 303 303 302 300 298 294 286 275 265 257 255 253 253 259 256 243 292 88 141 222 158 177 199 214 235 253 264 262 263 291 301 297 60 289 49 302 316 8 240 98 164 133 226 90 113 135 130 162 123 125 113 110 106 114 140 125 111 92 84 87 95 98 109 152 200 242 156 127 110 104 105 99 94 88 76 79
298 303 311 319 327 341 339 322 310 303 303 304 304 304 305 302 298 292 286 273 259 247 244 245 217 241 264 274 263 93 172 236 162 198 193 207 242 251 267 274 297 290 314 322 28 43 319 12 294 46 342 301 109 276 177 141 98 257 187 147 111 115 130 147 144 138 132 121 116 97 65 44 38 68 88 193 215 185 202 115 95 88 93 99 91 85 66 73
306 309 317 321 336 338 323 312 305 303 305 303 306 306 306 303 297 292 284 269 243 238 232 230 217 242 286 272 64 126 239 134 247 346 275 224 256 254 256 278 273 299 292 319 333 351 323 293 279 269 164 218 136 286 100 209 152 192 152 147 135 123 114 134 142 131 134 138 153 100 72 339 356 63 325 296 232 245 129 99 104 110 91 74 66 58 44 20
312 314 319 329 334 324 314 307 309 308 305 305 308 312 308 305 299 292 277 242 300 215 213 199 231 250 265 80 159 103 252 310 89 234 230 256 258 256 244 214 261 272 309 279 283 312 295 281 283 55 180 271 164 67 175 222 135 210 161 170 112 217 127 158 159 140 131 160 189 96 115 130 300 296 198 269 307 239 133 141 160 117 93 82 78 78 62 43
319 320 323 330 322 314 310 312 310 308 308 310 312 311 309 305 308 291 253 239 231 216 211 187 229 252 231 88 198 148 59 250 239 221 228 239 234 252 207 127 232 278 338 324 300 327 303 293 308 252 94 10 52 235 195 247 165 195 214 199 183 134 200 122 91 88 132 178 202 125 98 155 213 263 320 354 5 300 102 105 112 96 98 122 126 108 99 145
323 324 325 319 316 312 315 315 313 308 308 315 314 312 303 296 285 267 237 245 355 217 206 244 208 224 284 98 116 141 181 210 216 253 157 269 271 284 11 347 9 268 233 230 6 321 257 308 280 343 103 234 205 233 10 325 202 321 321 260 225 118 181 146 104 100 74 15 195 267 94 122 316 289 349 357 66 308 111 123 133 127 129 115 104 128 141 143
327 325 320 314 307 314 322 316 313 312 311 314 318 299 276 275 277 260 257 256 236 206 228 268 314 180 334 84 126 190 194 187 34 191 181 223 293 324 290 267 225 221 178 322 263 260 225 251 52 328 352 352 316 107 37 352 316 307 75 7 315 182 90 248 115 127 129 174 86 82 105 104 134 97 40 44 257 247 191 126 92 83 88 102 99 77 86 77
328 322 316 310 312 322 322 319 316 314 317 311 307 302 303 297 276 285 232 218 226 218 229 246 251 295 225 179 206 71 342 87 233 15 29 227 192 245 277 258 98 272 179 235 162 265 124 332 31 5 15 320 312 61 67 233 278 306 314 351 333 329 179 167 144 125 132 111 99 88 95 114 125 141 148 161 146 321 321 297 147 145 126 123 124 123 96 90
325 319 314 314 319 321 324 320 321 320 320 308 281 284 274 281 266 241 258 180 194 200 235 178 220 315 60 80 47 153 45 62 192 211 167 225 161 256 250 291 279 264 242 327 107 313 108 47 336 323 152 249 354 121 159 203 241 291 280 193 292 347 12 2 329 93 231 153 128 101 107 122 126 131 160 153 156 155 187 290 346 90 108 118 109 94 91 89
325 317 315 318 326 319 322 328 326 326 336 315 252 220 207 218 179 218 208 228 231 334 20 350 219 134 178 182 104 51 267 182 224 72 14 14 256 192 241 238 185 296 262 195 234 98 65 126 233 222 333 350 7 346 337 66 163 205 213 70 35 76 40 338 322 21 257 163 104 114 124 129 125 128 129 137 147 148 142 140 143 184 106 103 95 90 94 85
319 317 314 326 329 322 320 327 323 319 327 284 287 263 317 9 304 4 337 190 336 338 349 99 350 19 39 307 95 227 199 170 15 84 5 68 269 319 279 332 191 253 262 353 318 37 95 248 30 5 10 353 353 330 15 68 128 133 157 128 103 81 70 340 317 336 334 276 102 121 121 115 117 97 103 150 130 132 145 90 90 102 88 67 96 96 81 86
319 314 319 337 329 325 320 320 319 317 248 241 257 265 53 36 351 330 323 272 150 199 203 83 255 95 328 35 198 349 141 279 103 22 156 259 247 268 121 286 335 302 293 281 73 30 306 29 24 27 13 306 356 338 104 96 157 199 180 129 156 165 146 168 229 279 268 82 89 124 120 99 104 127 139 77 99 85 59 74 61 108 106 126 114 114 113 101
317 311 332 339 332 322 323 316 319 316 284 210 234 36 28 358 327 355 282 276 279 277 228 288 152 149 126 230 36 268 265 205 13 72 7 300 298 250 309 253 229 344 316 62 66 150 236 37 19 8 14 328 100 58 76 60 24 74 127 200 169 135 175 172 98 202 198 207 153 101 81 90 48 74 83 98 103 98 92 106 86 59 119 107 97 83 105 113
315 317 337 341 330 325 319 322 303 270 221 241 52 24 19 357 357 321 329 276 310 102 17 11 317 30 19 337 63 332 359 70 290 33 42 305 325 50 266 274 8 3 15 23 28 38 28 20 356 315 48 26 2 331 85 65 344 85 119 157 148 147 165 179 144 194 200 135 131 118 115 116 73 46 68 58 84 104 102 112 127 138 117 92 84 100 90 85
315 325 344 339 330 322 320 320 308 238 252 214 63 14 359 9 6 351 301 325 251 125 266 128 313 74 41 239 232 264 113 139 92 101 338 324 341 296 12 83 332 292 33 17 104 64 67 32 337 32 38 31 13 24 97 70 15 18 102 142 147 129 170 195 161 192 166 156 198 151 106 67 110 139 202 167 151 124 125 120 135 135 109 112 119 119 124 113
318 329 345 340 329 326 306 317 221 186 245 56 23 360 6 347 26 344 317 279 212 125 167 164 332 120 328 158 267 40 316 231 27 31 299 44 307 282 333 284 14 28 8 40 32 25 32 31 346 15 57 69 50 40 50 122 139 233 59 317 122 137 165 166 184 192 172 202 179 202 281 113 32 129 141 146 131 108 117 125 103 82 133 147 144 127 126 114
324 333 340 340 333 331 314 303 343 311 228 70 34 6 1 19 9 347 288 277 259 12 332 51 242 77 285 23 303 236 231 56 2 49 320 56 310 101 301 351 171 121 44 356 131 44 7 45 350 16 55 54 59 41 64 30 104 78 102 185 135 142 160 168 200 166 197 264 172 175 84 119 132 158 138 143 142 149 141 143 159 206 190 172 131 140 124 107
326 335 336 333 326 356 312 310 308 311 50 39 5 346 19 33 300 5 345 266 59 235 52 116 32 118 266 171 218 2 50 347 281 91 104 11 265 244 271 45 7 38 14 299 32 60 12 27 22 3 45 56 50 25 60 63 76 84 153 134 112 133 155 171 214 239 37 301 179 162 142 159 141 137 145 152 138 141 132 154 170 185 165 113 139 134 114 103
329 334 335 332 313 273 241 249 297 344 7 40 331 3 15 8 292 297 267 266 70 310 87 171 75 236 204 258 175 26 89 59 326 43 357 197 39 335 325 80 22 49 73 11 71 76 61 32 30 23 23 68 70 15 43 88 112 133 127 91 112 139 144 149 110 256 33 303 189 183 154 122 130 141 150 162 148 146 156 142 140 158 171 174 135 132 130 115
329 335 337 338 316 174 207 189 249 345 340 8 356 324 0 290 271 287 255 252 10 135 260 53 226 71 229 247 61 359 38 53 353 160 27 43 88 247 44 304 275 106 54 81 74 62 103 123 85 30 48 40 80 74 77 82 88 128 128 127 151 148 162 160 175 100 63 312 282 243 197 157 119 169 162 171 170 154 156 138 153 156 144 147 167 133 174 120
326 332 341 336 291 347 333 272 111 10 1 8 341 319 274 320 297 311 275 72 242 71 254 216 60 214 262 10 68 9 144 36 29 311 171 162 142 170 42 203 322 81 153 107 100 147 159 123 81 64 357 286 115 80 85 113 142 138 127 129 129 92 79 150 132 95 77 294 262 231 276 85 157 134 188 154 142 172 163 155 164 152 159 131 143 144 85 117
324 327 326 301 309 333 285 327 350 336 6 340 321 307 10 331 181 255 341 151 254 53 315 74 104 12 3 89 111 43 353 56 21 3 5 14 42 351 77 344 24 27 146 319 92 192 85 48 157 103 116 0 28 123 128 132 147 115 149 147 91 100 138 161 174 198 205 242 222 183 129 91 10 120 166 135 144 158 169 154 157 154 142 102 88 101 217 123
324 324 309 259 288 255 256 324 332 340 328 320 308 277 90 320 253 180 108 53 107 299 89 307 22 38 32 259 49 8 102 358 336 73 292 71 279 90 51 1 20 324 329 15 37 148 82 62 43 67 180 27 318 46 159 153 136 197 176 135 136 187 211 169 320 272 187 219 212 168 148 93 191 123 147 140 152 157 170 159 150 156 144 156 152 144 212 108
322 323 306 188 212 264 300 314 315 334 319 302 286 238 210 228 287 131 313 51 71 153 174 1 173 145 353 33 21 6 146 69 332 93 261 93 18 48 73 90 352 4 335 97 222 359 151 154 56 344 53 360 355 13 7 6 251 228 286 195 295 283 336 11 153 228 125 155 135 174 192 180 168 137 144 148 149 163 140 146 136 85 157 27 80 19 76 82
318 285 248 280 253 257 254 262 275 310 309 285 261 256 255 319 332 44 37 59 110 37 63 306 261 263 156 135 110 117 350 72 352 18 25 34 43 34 0 19 14 4 0 319 45 269 91 66 82 37 37 3 3 69 302 347 291 71 28 255 348 323 337 124 239 134 260 104 131 107 71 125 111 134 186 156 145 134 166 148 149 160 136 192 122 107 62 41
301 219 196 247 236 232 230 228 228 244 289 283 262 200 257 177 291 16 32 320 67 310 75 255 11 335 147 115 118 85 114 314 82 313 98 81 41 36 24 36 355 5 349 354 328 346 96 80 84 92 75 34 52 315 10 12 323 49 289 323 84 291 305 77 177 16 325 259 90 140 119 100 130 154 170 151 160 156 180 181 187 125 78 59 68 47 47 57
238 173 203 227 229 221 201 235 262 236 260 272 264 273 292 72 34 331 79 1 17 340 321 347 71 335 2 59 33 96 96 276 200 272 95 162 92 14 9 69 356 352 9 343 330 79 336 77 59 317 80 82 57 285 303 339 11 297 333 44 4 167 339 35 8 101 250 39 103 189 133 147 163 148 177 168 161 170 170 208 109 93 54 350 80 36 90 72
220 202 241 222 201 162 187 202 233 262 259 249 253 252 273 299 64 20 350 350 193 126 299 310 95 313 16 4 65 359 13 270 70 43 77 14 74 330 14 14 59 12 340 360 311 43 321 168 110 99 287 97 198 230 212 257 338 322 8 306 326 24 292 93 248 344 4 54 48 104 130 117 197 137 175 173 165 176 170 214 125 137 181 137 180 138 234 99
287 236 210 179 126 185 166 67 265 257 247 239 254 229 150 41 65 36 24 32 341 335 323 54 326 79 312 25 22 76 358 37 46 43 322 39 355 360 44 329 38 36 1 339 323 339 20 291 113 352 27 107 182 334 350 105 147 163 216 212 44 280 347 327 0 283 318 5 139 103 73 75 96 146 180 172 164 162 196 206 159 177 152 197 143 88 83 71
250 215 196 149 142 139 112 161 250 242 241 248 264 40 64 94 72 60 80 319 51 324 31 333 352 83 44 80 7 43 35 46 37 79 25 43 77 35 43 36 346 28 251 219 328 46 324 28 306 91 94 194 54 4 13 2 8 2 355 11 5 337 68 291 29 320 25 333 5 293 113 92 86 139 133 129 143 180 213 145 174 158 248 90 351 56 45 73
227 262 116 179 155 153 157 222 233 223 228 246 281 10 156 84 132 117 99 287 151 9 333 358 10 62 353 339 71 346 71 46 54 44 41 65 8 89 26 10 315 343 357 289 200 24 327 317 351 103 51 44 42 32 356 345 13 9 5 3 352 359 359 326 243 293 300 210 7 1 92 101 52 63 90 92 145 169 166 180 166 249 1 63 51 89 88 359
241 224 138 166 113 175 192 214 219 239 251 254 20 157 104 329 109 117 152 150 352 90 248 43 30 42 28 32 25 47 30 35 54 74 63 51 56 35 44 334 335 333 315 23 48 64 8 313 291 69 61 51 82 59 38 105 292 14 15 9 359 2 0 354 0 14 324 38 320 117 121 74 13 356 0 111 97 114 156 165 101 263 335 52 66 69 69 39
246 74 113 163 168 179 208 245 233 221 224 78 90 77 107 245 136 146 147 202 117 313 17 21 26 10 46 6 357 59 27 60 353 70 52 80 65 38 41 8 357 306 326 25 52 36 329 307 339 130 105 122 101 91 91 83 336 205 72 23 12 25 7 351 337 333 317 29 349 356 72 65 33 338 31 85 60 41 99 98 169 200 18 29 14 358 140 180
233 156 161 149 174 195 228 234 214 227 100 112 61 97 259 113 140 181 131 26 37 115 66 70 93 46 81 300 17 52 357 75 359 67 79 57 70 57 50 25 342 38 360 43 4 30 302 66 347 338 160 140 119 141 116 119 84 54 34 43 9 48 10 342 300 297 286 32 353 315 86 104 207 28 347 304 119 121 127 126 92 2 93 49 317 307 194 114
260 102 145 154 159 213 233 265 295 212 99 131 132 117 98 65 354 34 108 105 51 84 192 75 62 82 79 11 66 50 56 61 79 53 93 88 86 55 86 55 25 53 52 34 333 324 305 37 356 16 18 29 47 60 41 38 60 90 42 32 46 12 14 328 328 357 338 38 30 28 91 117 103 128 70 278 124 129 124 75 81 329 246 192 201 262 26 18
210 150 126 153 182 194 257 259 266 179 148 134 167 171 173 129 120 67 89 83 63 43 68 128 46 54 354 353 46 51 77 40 36 101 97 82 85 67 50 74 48 52 52 17 328 325 354 73 49 25 21 45 46 49 29 321 17 53 82 47 38 26 14 8 7 31 5 6 58 40 16 84 136 130 153 116 80 358 237 147 223 237 245 300 122 139 236 194
295 183 157 159 196 221 253 248 72 142 158 159 159 171 170 157 134 102 351 120 111 91 47 8 73 60 29 48 327 89 45 72 44 49 74 91 78 81 80 82 81 96 135 248 239 280 276 81 43 44 36 45 55 56 16 359 13 30 28 43 48 25 27 19 29 22 350 341 86 34 14 335 348 32 42 32 103 194 248 238 225 190 191 226 189 179 214 253
245 133 186 127 207 192 226 206 151 179 121 198 132 206 158 161 150 144 208 113 135 120 109 112 28 74 79 73 78 42 38 59 50 27 7 40 152 157 134 84 95 144 214 322 347 4 349 74 46 306 84 104 15 60 4 37 51 352 39 11 32 33 36 28 29 40 10 43 18 40 10 352 290 314 40 31 18 15 342 314 211 197 212 201 196 212 230 238
294 160 84 134 236 170 246 130 192 127 156 235 132 224 157 166 165 156 139 132 156 122 139 92 99 80 66 353 342 96 0 49 35 25 5 20 29 336 55 138 82 129 65 51 13 39 315 62 349 68 117 84 60 48 60 336 46 245 157 27 74 22 35 64 32 29 29 16 27 340 323 58 6 58 43 39 5 348 322 311 308 241 195 240 230 210 225 246
310 339 145 100 289 57 54 96 93 150 173 280 153 207 153 180 165 137 133 153 144 129 84 129 129 88 60 350 19 54 71 48 37 34 26 343 52 352 65 348 75 92 72 61 349 60 305 84 272 295 268 128 100 101 83 265 24 319 35 203 165 83 336 89 340 63 330 341 42 23 314 76 25 44 42 56 72 290 320 339 332 329 315 249 215 224 232 237
303 292 324 210 177 130 122 144 168 206 150 178 210 148 187 163 130 191 124 137 164 127 145 157 90 90 59 34 44 58 28 43 302 88 57 33 1 29 338 74 325 43 120 114 0 254 255 126 243 247 283 124 138 116 188 52 215 302 212 339 34 291 330 53 347 24 353 0 355 315 346 65 71 85 342 347 162 80 357 0 356 280 253 233 256 286 263 274
315 265 221 296 183 140 200 182 202 206 170 194 184 159 194 159 153 134 99 19 80 136 228 118 120 176 124 81 72 57 37 352 7 60 196 242 174 238 338 19 7 23 33 77 285 360 32 320 296 354 323 108 116 106 258 244 232 211 34 46 40 359 19 47 352 68 91 67 282 319 27 35 2 309 26 30 24 334 273 219 329 30 13 358 355 353 349 353